STARLINK-34852, 66135

Orbit data source: Space-Track

STARLINK-34852, 66135 is a payload satellite owned by SpaceX/Seattle (US) in LEO that was launched on Wed, 22 Oct 2025 UTC via an FALCON 9 launch vehicle from the Air Force Western Test Range (AFWTR). Payload-class satellites include a variety of spacecraft equipped with specific instruments for various scientific and technological missions. These include communications satellites like Starlink; space stations such as the ISS; scientific satellites like the Hubble; Earth observation satellites from companies like Planet Labs, Umbra, and HawkEye 360; GPS; miniature CubeSats for education and research; and military/defense satellites.

Loading next visibility...
Identifier
66135, 2025-237X
Orbit
LEO
Country
Flag of USUS
Related business
Manufacturer
SpaceX/Seattle
Mission
Operational Commercial Communications
Bus & Motor
STARLINK V2MO, Unknown motor
Mass
575 kg wet, ~530 kg dry
Launch date (UTC)
2025-10-22 (8 months ago)
Launch vehicle
FALCON 9
Launch site
Air Force Western Test Range (AFWTR)
Object type
Payload
Rocket body
Debris
Shape & HBR
Box + 2 Pan, 17.7 m
Radar Cross Section
36.964 m², Large (>1 m²)

Expand to show TLE details & history
Last TLE update: 14 hours ago

TLE from 14 hours ago
0 STARLINK-34852
1 66135U 25237X   26171.33181141  .00024304  00000-0  82954-3 0  9993
2 66135  53.1588 282.9915 0000384  22.3718 337.7299 15.30218942 38283
Epoch: 2026-06-20T07:57Z
TLE epoch observation values (Epoch: 2026-06-20T07:57:48.505Z)
Latitude
-0.00007°
Longitude
-105.00862°
Altitude
475.815 km
Speed
7.629 km/s
True Right ascension
18h 51m 57s
True Declination
0° 00' 00"
Sunlit
Object was in full shadow at epoch
Visualization orbit readout
Latitude
Unknown
Longitude
Unknown
Altitude
Unknown
Speed
Unknown
Apparent Right ascension
Unknown
Apparent Declination
Unknown
Sunlit
N/A
Visualization observer readout
Local Sidereal Time
08:42:40
Azimuth
Unknown
Elevation
Unknown
Doppler factor
Unknown
Orbital elements
Apogee altitude
475.678 km
Perigee altitude
475.152 km
Semi-major axis
6,853.552 km
Eccentricity
0.00004
Inclination
53.1588°
RAAN
282.9915°
Arg. of periapsis
22.3718°
True anomaly
337.72823°
Mean anomaly
337.7299°
Eccentric anomaly
337.72907°
Mean motion
3.82534 °/min
Orbital period
94.11 mins
BSTAR
0.00082954
Loading maneuver chart data...
Computing Atmospheric mass density...
Loading historical data...
Loading historical data...
Loading historical data...
Loading historical data...
Loading historical data...
Loading historical data...
Loading historical data...

Documentation

Showing up to 5 results
|